User: anonymous   Login
Location: Unspecified
(0.0000°N, 0.0000°E)
Time: 01:10:39
(UTC+00:00)
Language:

Gurwin Techsat 1B - Orbit

View from above orbital plane
View from above orbital plane
View from above satellite
View from above satellite

Ground track
Ground track

The orbit data is extracted from the following two-line orbital elements,

1 25397U 98043D   24201.48715585  .00000253  00000-0  13003-3 0  9992
2 25397  98.9234 168.6955 0002362  75.9955 284.1486 14.24071761352013
Epoch (UTC): 19 July 2024 11:41:30
Eccentricity: 0.0002362
inclination: 98.9234°
perigee height: 810 km
apogee height: 813 km
right ascension of ascending node: 168.6955°
argument of perigee: 75.9955°
revolutions per day: 14.24071761
mean anomaly at epoch: 284.1486°
orbit number at epoch: 35201

The dashed part of the orbit path shows where the satellite is in the earth's shadow,  

DLR